[[{"header":{"parameterUnit":"m.s-1","parameterCategory":1,"la1":30.2991,"la2":30.254,"lo1":-89.0895,"lo2":-89.0444,"dy":0.0017,"dx":0.0017,"nx":28,"ny":28,"refTime":"2026-02-24T09:00:00:Z","depth":0,"parameterNumber":2,"parameterNumberName":"U-component_of_WINDS"},"data":[0,0,0,0,0,0,0,0,0,0,0,0,0,0,0,0,0,0,0,0,0,0,0,0,0,0,0,0,0,0,0,0,0,0,0,0,0,0,0,0,0,0,0,0,0,0,0,0,0,0,0,0,0,0,0,0,0,0,0.7701,0.7702,0,0.7819,0.7821,0.7822,0.7845,0.7844,0.7843,0.7842,0.7963,0.7967,0.7971,0,0,0,0,0,0,0,0,0,0,0,0,0,0.7492,0.7496,0.7701,0.7702,0.7704,0.7819,0.7821,0.7822,0.7845,0.7844,0.7843,0.7842,0.7961,0.7966,0.7971,0,0,0,0,0,0,0,0,0,0,0,0,0,0.7594,0.7497,0.77,0.7729,0.7733,0.7819,0.7821,0.7823,0.7845,0.7844,0.7843,0.7841,0.796,0.7966,0.7972,0.8037,0,0,0.799,0.7993,0,0,0,0,0,0,0,0,0.7588,0.7601,0.7723,0.7727,0.7732,0.7816,0.7791,0.7895,0.7846,0.7803,0.7842,0.7841,0.7915,0.7925,0.795,0.8043,0.8048,0.7991,0.7995,0.7997,0.7999,0,0,0,0,0,0,0,0.7581,0.7596,0.7748,0.7725,0.773,0.7735,0.7748,0.7811,0.7865,0.7806,0.7808,0.7822,0.7917,0.7944,0.7953,0.805,0.7991,0.7996,0.8,0.8002,0.8201,0.8203,0,0,0,0,0,0,0.7569,0.759,0.7744,0.7751,0.7655,0.774,0.7755,0.779,0.7865,0.7875,0.7823,0.7823,0.7934,0.7946,0.7957,0.8038,0.7997,0.8003,0.8007,0.8199,0.8201,0.8203,0,0,0,0,0,0,0.7564,0.7582,0.7739,0.7671,0.7692,0.7745,0.7785,0.7793,0.782,0.7877,0.7887,0.7841,0.7934,0.7949,0.8017,0.8043,0.8006,0.8011,0.8198,0.82,0.8202,0.82,0,0,0,0,0,0,0.7558,0.7581,0.7607,0.7672,0.7695,0.7797,0.7787,0.7797,0.7831,0.7832,0.7897,0.7906,0.7934,0.8008,0.8023,0.805,0.8016,0.8196,0.8199,0.8202,0.8198,0.8202,0.8206,0,0,0,0,0,0.7551,0.7602,0.7608,0.7626,0.7729,0.7799,0.7812,0.7843,0.7833,0.7859,0.7895,0.7904,0.8037,0.8015,0.8032,0.8061,0.8194,0.8198,0.8201,0.8197,0.8202,0.8206,0,0,0,0,0,0,0.7538,0.7611,0.7619,0.7692,0.7739,0.7803,0.7837,0.7848,0.7899,0.7897,0.7933,0.7948,0.8013,0.8044,0.8018,0.8128,0.8115,0.8122,0.8105,0.8111,0.8114,0.8105,0.8021,0,0,0,0,0,0.7544,0.7595,0.7656,0.7715,0.7738,0.7783,0.7815,0.7835,0.7885,0.7905,0.7946,0.7994,0.8046,0.808,0.8132,0.8203,0.8217,0.8232,0.8235,0.8238,0.8244,0.8282,0.8289,0.8215,0.8215,0.8215,0,0,0.7557,0.7603,0.7633,0.7713,0.7752,0.7803,0.78,0.7855,0.7893,0.7913,0.798,0.8011,0.8067,0.8137,0.8169,0.8164,0.8267,0.8243,0.8244,0.8249,0.8287,0.8294,0.83,0.8218,0.8217,0.8217,0,0,0.7606,0.7646,0.7699,0.7738,0.7796,0.7826,0.7838,0.79,0.7922,0.799,0.8005,0.8051,0.8141,0.8179,0.8211,0.8273,0.8282,0.8288,0.8308,0.8345,0.8351,0.8356,0.8377,0.8384,0.8294,0.8294,0.8294,0,0.7614,0.7693,0.7725,0.7779,0.7813,0.7833,0.7886,0.7922,0.7995,0.8017,0.8011,0.8123,0.8162,0.8241,0.8255,0.8281,0.8295,0.8281,0.8347,0.8353,0.8359,0.8379,0.8387,0.8294,0.8294,0.8294,0.8294,0,0.7699,0.7753,0.7789,0.7858,0.7896,0.795,0.7989,0.8024,0.804,0.807,0.8137,0.8185,0.8245,0.8265,0.8282,0.8346,0.8341,0.834,0.8328,0.8365,0.8385,0.8393,0.8295,0.8295,0.8295,0.8295,0,0,0.7744,0.783,0.7842,0.7873,0.7939,0.7981,0.8034,0.8094,0.8122,0.8171,0.8216,0.8291,0.8291,0.8326,0.8347,0.838,0.8424,0.8375,0.8377,0.8382,0.8496,0.8495,0.8504,0.8431,0.8432,0.8433,0.8491,0,0.7801,0.7897,0.7927,0.8008,0.8057,0.8077,0.8123,0.8167,0.8196,0.8242,0.8274,0.8326,0.8322,0.8344,0.8377,0.8412,0.8447,0.8408,0.8472,0.8474,0.8457,0.8515,0.8515,0.8567,0.8499,0.85,0.8501,0,0.788,0.7929,0.8015,0.8073,0.8095,0.8136,0.8192,0.8236,0.8286,0.8305,0.8344,0.8361,0.8417,0.8401,0.8477,0.845,0.8478,0.8499,0.8501,0.8508,0.849,0.8522,0.8584,0.8592,0.8514,0.8513,0.8512,0,0.7903,0.7991,0.8054,0.808,0.8149,0.8177,0.8207,0.8256,0.829,0.8338,0.836,0.8415,0.8445,0.8486,0.8517,0.8503,0.8591,0.8578,0.8607,0.8606,0.8624,0.8623,0.8691,0.8643,0.8643,0.8643,0.8643,0,0.7962,0.8014,0.8065,0.8103,0.8161,0.8194,0.825,0.8281,0.8324,0.8368,0.8387,0.8428,0.8467,0.8513,0.8538,0.8596,0.861,0.8626,0.8632,0.8624,0.8622,0.8642,0.8639,0.8645,0.8644,0.8644,0.8644,0,0.7998,0.8035,0.8104,0.8163,0.8179,0.8219,0.827,0.8307,0.8336,0.8391,0.8406,0.8452,0.8506,0.8541,0.8611,0.8628,0.8691,0.8697,0.8675,0.8677,0.8704,0.8701,0.8788,0.88,0.8744,0.8745,0.8745,0,0.8034,0.8074,0.8137,0.8168,0.8198,0.8248,0.8282,0.8315,0.835,0.8409,0.8439,0.8495,0.8541,0.8627,0.8666,0.8719,0.8725,0.8752,0.8733,0.8723,0.8725,0.8722,0.8725,0.8755,0.8755,0.8755,0.8756,0,0.8093,0.8108,0.8157,0.8211,0.8251,0.8295,0.834,0.8364,0.8405,0.8442,0.8498,0.8534,0.8604,0.8659,0.8715,0.8745,0.8757,0.8761,0.8771,0.8763,0.8748,0.8756,0.8682,0.8759,0.8759,0.8759,0.8758,0.8758,0.8129,0.8165,0.8215,0.8268,0.8304,0.8345,0.8383,0.8416,0.8463,0.8523,0.854,0.8598,0.8646,0.8723,0.8754,0.8799,0.8796,0.881,0.8813,0.8816,0.8815,0.8741,0.8809,0.8809,0.8809,0.8809,0.8809,0,0.8188,0.8221,0.8269,0.833,0.8371,0.8379,0.8428,0.8462,0.8513,0.8556,0.8601,0.8665,0.8717,0.876,0.8814,0.8842,0.8849,0.8855,0.8853,0.886,0.8816,0.8802,0.8849,0.8849,0.8849,0.8849,0.8848,0.8848,0.8223,0.8284,0.8305,0.8384,0.8416,0.8473,0.85,0.8538,0.8573,0.8642,0.8686,0.8714,0.8757,0.8814,0.8862,0.8873,0.8892,0.8897,0.8909,0.8867,0.8863,0.8859,0.8846,0.8901,0.8901,0.8949,0.895,0.895]},{"header":{"parameterUnit":"m.s-1","parameterCategory":1,"la1":30.2991,"la2":30.254,"lo1":-89.0895,"lo2":-89.0444,"dy":0.0017,"dx":0.0017,"nx":28,"ny":28,"refTime":"2026-02-24T09:00:00:Z","depth":0,"parameterNumber":3,"parameterNumberName":"V-component_of_WINDS"},"data":[0,0,0,0,0,0,0,0,0,0,0,0,0,0,0,0,0,0,0,0,0,0,0,0,0,0,0,0,0,0,0,0,0,0,0,0,0,0,0,0,0,0,0,0,0,0,0,0,0,0,0,0,0,0,0,0,0,0,5.6299,5.63,0,5.637,5.637,5.6371,5.632,5.6318,5.6316,5.6314,5.638,5.6384,5.6388,0,0,0,0,0,0,0,0,0,0,0,0,0,5.6112,5.6116,5.6299,5.63,5.6301,5.637,5.6371,5.6371,5.6321,5.6318,5.6315,5.6313,5.6379,5.6383,5.6388,0,0,0,0,0,0,0,0,0,0,0,0,0,5.6189,5.6117,5.6299,5.6284,5.6283,5.6369,5.6371,5.6372,5.6321,5.6318,5.6315,5.6312,5.6377,5.6383,5.6389,5.6491,0,0,5.6406,5.6409,0,0,0,0,0,0,0,0,5.6185,5.6196,5.6285,5.6285,5.6284,5.6333,5.6329,5.6412,5.6322,5.6307,5.6314,5.631,5.6367,5.6373,5.6393,5.6494,5.6497,5.6407,5.641,5.6413,5.6414,0,0,0,0,0,0,0,5.6179,5.6192,5.6327,5.6286,5.6286,5.6271,5.6278,5.6344,5.6354,5.6308,5.6304,5.6314,5.6366,5.6388,5.6395,5.6498,5.6406,5.6412,5.6415,5.6417,5.6684,5.6687,0,0,0,0,0,0,5.6176,5.6188,5.6324,5.6329,5.6225,5.6277,5.6285,5.6321,5.6354,5.6356,5.6317,5.6311,5.638,5.6388,5.6397,5.6517,5.6413,5.6418,5.6421,5.668,5.6685,5.6689,0,0,0,0,0,0,5.6172,5.6189,5.6321,5.6258,5.6273,5.6284,5.6324,5.6324,5.6346,5.636,5.6361,5.6338,5.6378,5.6389,5.6468,5.6519,5.6421,5.6426,5.6676,5.6682,5.6687,5.6761,0,0,0,0,0,0,5.6167,5.6188,5.6229,5.6259,5.6277,5.6394,5.6327,5.6328,5.6357,5.6351,5.6381,5.6382,5.6376,5.646,5.6474,5.6525,5.643,5.6671,5.6679,5.6685,5.6754,5.6768,5.678,0,0,0,0,0,5.6161,5.6246,5.6231,5.6248,5.6329,5.6397,5.6407,5.64,5.6361,5.6401,5.641,5.6381,5.6512,5.6468,5.6484,5.6538,5.6668,5.6677,5.6684,5.6748,5.6765,5.678,0,0,0,0,0,0,5.6219,5.625,5.6234,5.6332,5.6363,5.6388,5.6439,5.6419,5.6459,5.6451,5.6438,5.6446,5.6528,5.6541,5.6492,5.6637,5.6583,5.6595,5.6626,5.6643,5.6656,5.665,5.6435,0,0,0,0,0,5.6244,5.63,5.6322,5.6406,5.6422,5.6428,5.6457,5.6449,5.648,5.6492,5.6506,5.6535,5.6582,5.6613,5.6658,5.6756,5.676,5.68,5.6813,5.6824,5.6833,5.6884,5.6901,5.6715,5.6715,5.6715,0,0,5.6295,5.6318,5.6354,5.6418,5.6441,5.6496,5.6439,5.65,5.654,5.65,5.6576,5.6588,5.6619,5.6707,5.6747,5.672,5.6886,5.6834,5.6843,5.6847,5.6894,5.6911,5.6927,5.6721,5.672,5.6719,0,0,5.6415,5.644,5.6511,5.6536,5.6572,5.6575,5.6592,5.6621,5.6628,5.6705,5.6676,5.6721,5.6804,5.6826,5.6849,5.6977,5.6951,5.6991,5.706,5.7109,5.7123,5.7136,5.718,5.7196,5.7001,5.7001,5.7001,0,5.6473,5.6557,5.655,5.6613,5.6641,5.661,5.6681,5.6704,5.6752,5.6771,5.6741,5.6842,5.6861,5.6953,5.6985,5.7005,5.7021,5.6987,5.7122,5.7135,5.7147,5.7188,5.7205,5.7006,5.7005,5.7005,5.7004,0,5.6625,5.6683,5.6737,5.6786,5.682,5.6886,5.6887,5.6922,5.6911,5.6916,5.6993,5.7014,5.7061,5.7083,5.7072,5.7173,5.7155,5.7124,5.7069,5.7169,5.7208,5.7223,5.7012,5.7011,5.7009,5.7008,0,0,5.6784,5.6828,5.6847,5.6868,5.6906,5.6949,5.7013,5.7061,5.709,5.7124,5.7175,5.7245,5.7217,5.7242,5.7233,5.7276,5.7374,5.7239,5.724,5.7262,5.7484,5.7506,5.7524,5.7357,5.736,5.7363,5.748,0,5.6904,5.7018,5.7014,5.7119,5.7171,5.7142,5.7197,5.7224,5.7231,5.7274,5.728,5.733,5.7289,5.7304,5.7346,5.7353,5.7418,5.7345,5.7402,5.7404,5.7394,5.7545,5.7568,5.7678,5.7495,5.7498,5.75,0,5.706,5.7101,5.7212,5.724,5.7262,5.7312,5.7354,5.7397,5.7426,5.7428,5.7456,5.744,5.7502,5.7447,5.753,5.7481,5.7504,5.7511,5.7515,5.7519,5.7457,5.755,5.7713,5.7729,5.7524,5.7522,5.752,0,5.7162,5.7244,5.7321,5.734,5.7375,5.7411,5.7427,5.7453,5.7482,5.7518,5.7536,5.7579,5.7602,5.7634,5.7629,5.759,5.7713,5.7658,5.7714,5.7714,5.7739,5.7737,5.7906,5.7758,5.7758,5.7757,5.7757,0,5.7296,5.7364,5.7367,5.7414,5.7489,5.7482,5.7555,5.7567,5.7591,5.7637,5.7614,5.7658,5.7649,5.7692,5.7688,5.7756,5.7767,5.7768,5.7766,5.7769,5.7769,5.7783,5.7774,5.7762,5.7761,5.776,5.7759,0,5.7422,5.7427,5.7508,5.7535,5.7543,5.7597,5.7619,5.7662,5.7666,5.7726,5.7739,5.7746,5.7795,5.7793,5.7849,5.7846,5.7929,5.7919,5.792,5.7917,5.7972,5.7966,5.8154,5.8177,5.8016,5.8017,5.8019,0,5.7506,5.7558,5.7591,5.7622,5.764,5.769,5.7719,5.7714,5.7745,5.7782,5.7819,5.7867,5.7904,5.7984,5.7992,5.8034,5.8023,5.8086,5.8029,5.803,5.8021,5.8017,5.8021,5.8097,5.8098,5.81,5.8101,0,5.7654,5.7654,5.7699,5.7744,5.778,5.7815,5.7847,5.7873,5.787,5.7906,5.7957,5.7986,5.8043,5.8089,5.8129,5.8142,5.8121,5.8119,5.8134,5.8137,5.8134,5.8134,5.7948,5.8115,5.8113,5.8112,5.8112,5.8111,5.7761,5.7805,5.7835,5.7884,5.7908,5.7939,5.798,5.799,5.8033,5.8081,5.8074,5.813,5.8156,5.8208,5.8225,5.8267,5.8244,5.8266,5.8271,5.8276,5.8281,5.813,5.8274,5.8274,5.8274,5.8273,5.8273,0,5.7906,5.7924,5.797,5.8016,5.8054,5.8033,5.8067,5.81,5.815,5.8177,5.8215,5.8272,5.8317,5.8329,5.8371,5.8402,5.8393,5.8414,5.841,5.8413,5.83,5.8282,5.842,5.842,5.842,5.842,5.842,5.842,5.7986,5.8059,5.8062,5.8146,5.8162,5.8219,5.824,5.8267,5.8288,5.8354,5.8391,5.84,5.842,5.8463,5.8503,5.8505,5.852,5.8544,5.8542,5.8436,5.8421,5.8407,5.839,5.8548,5.8548,5.8651,5.8652,5.8653]}]]